Regional Weather Roundup
Issued by NWS

Home | Current Version | Previous Version | Graphics & Text | Print | Product List | Glossary On
Versions: 1 2 3 4 5 6 7 8 9 10 11 12 13 14 15 16 17 18 19 20 21 22 23 24 25 26 27 28 29 30 31 32 33 34 35 36 37 38 39 40 41 42 43 44 45 46 47 48 49 50
678
ASUS43 KMKX 291921
RWRWI

WISCONSIN REGIONAL WEATHER ROUNDUP
NATIONAL WEATHER SERVICE MILWAUKEE/SULLIVAN WI
200 PM CDT FRI APR 29 2016

NOTE: "FAIR" INDICATES FEW OR NO CLOUDS BELOW 12,000 FEET WITH NO
SIGNIFICANT WEATHER AND/OR OBSTRUCTIONS TO VISIBILITY.

WIZ001-002-006>008-014>016-023>028-292000-
NORTHWEST WISCONSIN

CITY           SKY/WX    TMP DP  RH WIND       PRES   REMARKS
SUPERIOR ARPT  SUNNY     51  32  49 E7        30.20S
ASHLAND        SUNNY     52  35  52 N9G17     30.20R
HAYWARD        SUNNY     56  30  37 N12G22    30.14F
SIREN          SUNNY     58  28  32 E7        30.13F
CUMBERLAND     SUNNY     54  32  43 N12G17    30.12F
RICE LAKE      SUNNY     56  30  36 N13G18    30.13F
CHETEK         SUNNY     57  37  45 CALM      30.11F
LADYSMITH      SUNNY     58  33  38 SE5       30.12F
EAU CLAIRE     CLOUDY    55  37  50 E10       30.13S
MENOMONIE      MOSUNNY   59  53  81 E6        30.13S
NEW RICHMOND   SUNNY     56  32  41 NE7       30.13F
OSCEOLA        SUNNY     56  33  41 NE10      30.15F
$$

WIZ003>005-009-010-017-018-292000-
NORTH CENTRAL WISCONSIN

CITY           SKY/WX    TMP DP  RH WIND       PRES   REMARKS
MANITOWISH WTR CLOUDY    53  31  42 NE5       30.13R
ARBOR VITAE    PTSUNNY   55  33  44 SE3       30.13R
WOODRUFF       PTSUNNY   55  33  44 SE3       30.13R
RHINELANDER    PTSUNNY   54  33  45 NE8       30.13S
EAGLE RIVER    CLOUDY    51  30  43 CALM      30.13S
LAND O LAKES   CLOUDY    54  31  42 SE7       30.14R
PHILLIPS       SUNNY     55  31  41 E5        30.11S
TOMAHAWK       MOSUNNY   52  33  48 E6        30.13S
MEDFORD        CLOUDY    51  37  57 N8        30.11F
MERRILL        MOSUNNY   56  35  45 E7        30.12S
$$

WIZ029-030-035-036-043>047-292000-
CENTRAL WISCONSIN

CITY           SKY/WX    TMP DP  RH WIND       PRES   REMARKS
WAUSAU         PTSUNNY   56  35  45 E9        30.10F
MOSINEE        CLOUDY    54  36  50 VRB6      30.13F
MARSHFIELD     CLOUDY    52  37  56 NE6       30.12S
STEVENS POINT  CLOUDY    51  33  49 E8        30.13S
WAUPACA        CLOUDY    56  34  44 E6        30.15R
WAUTOMA        CLOUDY    53  34  48 E7        30.14
WISC RAPIDS    CLOUDY    53  33  46 SE3       30.14S
CAMP DOUGLAS   CLOUDY    50  45  81 NE9       30.13S
$$

WIZ011>013-019>022-031-037>040-048>050-292000-
NORTHEAST WISCONSIN

CITY           SKY/WX    TMP DP  RH WIND       PRES   REMARKS
ANTIGO         PTSUNNY   53  32  44 N3        30.12F
SHAWANO        CLOUDY    55  33  44 E9        30.15F
OCONTO         CLOUDY    51  28  41 E8        30.16R
STURGEON BAY   CLOUDY    48  28  46 N8        30.19R
GREEN BAY      CLOUDY    54  33  45 NE12G20   30.15R
MANITOWOC      SUNNY     50  28  42 MISG      30.18R
APPLETON       PTSUNNY   52  28  40 NE7       30.13R
CLINTONVILLE   CLOUDY    54  32  43 NE8       30.14S
OSHKOSH        CLOUDY    52  33  48 NE7       30.14R
$$

WIZ032>034-041-042-053>061-292000-
SOUTHWEST WISCONSIN

CITY           SKY/WX    TMP DP  RH WIND       PRES   REMARKS
LA CROSSE      CLOUDY    52  37  56 N7        30.12F
SPARTA         CLOUDY    52  39  63 E5        30.13F
VIROQUA        CLOUDY    49  38  67 NE10      30.11F
BOSCOBEL       CLOUDY    52  36  54 NE8       30.12S
PRAIRIE DU CHI CLOUDY    51  35  53 E7        30.11F
PLATTEVILLE    CLOUDY    48  39  71 E7        30.12R
$$

WIZ056-057-062-063-064-067-068-292000-
SOUTH CENTRAL WISCONSIN

CITY           SKY/WX    TMP DP  RH WIND       PRES   REMARKS
REEDSBURG      CLOUDY    51  37  59 E7        30.11F
BARABOO/DELLS  CLOUDY    52  36  55 NE10      30.10F
LONE ROCK      CLOUDY    51  38  60 E7        30.12F
MINERAL POINT  CLOUDY    50  37  62 E8        30.11R
MADISON        PTSUNNY   52  39  61 NE13G21   30.10S
MIDDLETON      CLOUDY    51  40  67 NE13      30.10F
WATERTOWN      CLOUDY    48  38  68 NE8       30.10S
MONROE         CLOUDY    45  39  81 NE6       30.11R
JANESVILLE     CLOUDY    48  39  71 E8        30.10F
$$

WIZ051-052-058>065-066-070>072-292000-
SOUTHEAST WISCONSIN

CITY           SKY/WX    TMP DP  RH WIND       PRES   REMARKS
MILWAUKEE      PTSUNNY   46  38  73 NE14      30.11R
WAUKESHA       MOSUNNY   45  36  70 NE12      30.12F
MILWAUKEE/TIMM SUNNY     48  34  57 N10G18    30.12F
RACINE         MOSUNNY   47  37  68 NE12      30.13R
BURLINGTON     CLOUDY    46  37  72 E6        30.11S
KENOSHA        PTSUNNY   48  38  68 VRB5      30.11R
FOND DU LAC    CLOUDY    51  36  56 CALM      30.13S
SHEBOYGAN      CLOUDY    50  33  52 NE9       30.15R
WEST BEND      PTSUNNY   50  32  50 E15       30.11F
JUNEAU         PTSUNNY   49  38  66 N8        30.12F
$$

LSZ147-162-292000-
LAKE SUPERIOR

STATION/POSITION TIME  TEMP    WIND        PRES    WAVE
                       AIR SEA DIR/SP/G            HT/PER
                 (UTC) (F)     (DEG/KT/KT) (MB)    (FT/S)
W MID LAKE BUOY  1850   38 37   90/  6/  8 1023.4F   1
DEVILS ISLAND    1900   38      60/  6/  7 1024.1R
SAXON HARBOR     1800   40      10/  5/  6 1022.4S
$$

LMZ867-665-643>646-292000-
LAKE MICHIGAN

STATION/POSITION TIME  TEMP    WIND        PRES    WAVE
                       AIR SEA DIR/SP/G            HT/PER
                 (UTC) (F)     (DEG/KT/KT) (MB)    (FT/S)
CHAMBERS ISLAND  1840   46     340/  4/  6 1021.3R
N MID LAKE BUOY  1850   39 39   20/  6/  6 1020.9R   1
NORTHPORT PIER   1800   44     350/  2/  5 1020.7S
ALGOMA LAKESHORE 1830           40/ 14/ 15   N/A
KEWAUNEE LAKESHO 1900   45      30/  8/ 10 1020.8R
SHEBOYGAN LAKESH 1900   42      30/  8/  9 1022.1R
PORT WASHINGTON  1900   45      50/  9/ 12 1021.0F
S MID LAKE BUOY  1850   40 40   30/  4/  6 1019.6R   1/ 3
KENOSHA   LAKESH 1900   41      30/ 10/ 14 1020.0R
$$

TC  - TEMPERATURE IN CELSIUS
VSB - VISIBILITY IN STATUTE MILES
WCI - WIND CHILL INDEX
HX  - HEAT INDEX





USA.gov is the U.S. government's official web portal to all federal, state and local government web resources and services.